| time (UTC) | temp C | wind direction | speed KPH | gust KPH | rain 1hr cm | rain 24hr cm | rain mn cm | humidity % | barometer mb |
| 20260508172709 | 15 | 160 | 3.2 | 12.9 | 0.00 | 0.00 | 0.00 | 33 | 1008.8 |
| 20260508172206 | 16 | 210 | 9.7 | 17.7 | 0.00 | 0.00 | 0.00 | 32 | 1008.5 |
| 20260508171702 | 14 | 30 | 1.6 | 12.9 | 0.00 | 0.00 | 0.00 | 35 | 1008.4 |
| 20260508171159 | 14 | 195 | 3.2 | 9.7 | 0.00 | 0.00 | 0.00 | 35 | 1008.8 |
| 20260508170656 | 14 | 183 | 1.6 | 14.5 | 0.00 | 0.00 | 0.00 | 35 | 1008.6 |
| 20260508170154 | 14 | 189 | 1.6 | 9.7 | 0.00 | 0.00 | 0.00 | 37 | 1008.7 |
| 20260508165650 | 14 | 52 | 1.6 | 3.2 | 0.00 | 0.00 | 0.00 | 36 | 1008.5 |
| 20260508165147 | 14 | 229 | 6.4 | 12.9 | 0.00 | 0.00 | 0.00 | 36 | 1008.8 |
| 20260508164644 | 14 | 156 | 1.6 | 11.3 | 0.00 | 0.00 | 0.00 | 36 | 1008.5 |
| 20260508164141 | 14 | 153 | 1.6 | 3.2 | 0.00 | 0.00 | 0.00 | 35 | 1008.5 |
| 20260508163638 | 14 | 229 | 3.2 | 9.7 | 0.00 | 0.00 | 0.00 | 37 | 1008.6 |
| 20260508163136 | 14 | 184 | 1.6 | 12.9 | 0.00 | 0.00 | 0.00 | 34 | 1008.6 |
| 20260508162631 | 14 | 127 | 0.0 | 3.2 | 0.00 | 0.00 | 0.00 | 35 | 1008.7 |
| 20260508162129 | 15 | 220 | 3.2 | 4.8 | 0.00 | 0.00 | 0.00 | 36 | 1008.8 |
| 20260508161625 | 15 | 153 | 1.6 | 3.2 | 0.00 | 0.00 | 0.00 | 36 | 1008.4 |
| 20260508161123 | 14 | 196 | 9.7 | 14.5 | 0.00 | 0.00 | 0.00 | 36 | 1008.6 |
| 20260508160622 | 15 | 22 | 3.2 | 6.4 | 0.00 | 0.00 | 0.00 | 36 | 1008.8 |
| 20260508160119 | 14 | 134 | 0.0 | 3.2 | 0.00 | 0.00 | 0.00 | 36 | 1008.7 |
| 20260508155615 | 14 | 116 | 3.2 | 17.7 | 0.00 | 0.00 | 0.00 | 36 | 1008.8 |
| 20260508155112 | 13 | 103 | 1.6 | 6.4 | 0.00 | 0.00 | 0.00 | 36 | 1008.9 |
| 20260508154609 | 15 | 175 | 4.8 | 11.3 | 0.00 | 0.00 | 0.00 | 35 | 1008.9 |
| 20260508154106 | 15 | 218 | 6.4 | 22.5 | 0.00 | 0.00 | 0.00 | 34 | 1009.1 |
| 20260508153603 | 15 | 211 | 1.6 | 4.8 | 0.00 | 0.00 | 0.00 | 36 | 1009.1 |
| 20260508153059 | 14 | 237 | 3.2 | 14.5 | 0.00 | 0.00 | 0.00 | 37 | 1009.1 |
| 20260508152557 | 14 | 190 | 6.4 | 11.3 | 0.00 | 0.00 | 0.00 | 37 | 1009.0 |
| 20260508152051 | 14 | 181 | 0.0 | 3.2 | 0.00 | 0.00 | 0.00 | 38 | 1009.0 |
| 20260508151548 | 14 | 11 | 4.8 | 9.7 | 0.00 | 0.00 | 0.00 | 36 | 1009.1 |
| 20260508151046 | 13 | 76 | 0.0 | 3.2 | 0.00 | 0.00 | 0.00 | 38 | 1009.1 |
| 20260508150543 | 13 | 98 | 1.6 | 4.8 | 0.00 | 0.00 | 0.00 | 36 | 1009.2 |
| 20260508150038 | 13 | 358 | 3.2 | 4.8 | 0.00 | 0.00 | 0.00 | 37 | 1009.3 |
| 20260508145535 | 13 | 202 | 4.8 | 6.4 | 0.00 | 0.00 | 0.00 | 37 | 1009.3 |
| 20260508145031 | 13 | 106 | 0.0 | 4.8 | 0.00 | 0.00 | 0.00 | 38 | 1009.3 |
| 20260508144530 | 13 | 35 | 3.2 | 14.5 | 0.00 | 0.00 | 0.00 | 38 | 1009.4 |
| 20260508144027 | 13 | 76 | 1.6 | 3.2 | 0.00 | 0.00 | 0.00 | 38 | 1009.7 |
| 20260508143524 | 13 | 128 | 1.6 | 14.5 | 0.00 | 0.00 | 0.00 | 36 | 1009.5 |
| 20260508143020 | 13 | 179 | 3.2 | 3.2 | 0.00 | 0.00 | 0.00 | 36 | 1009.3 |
| 20260508142518 | 13 | 210 | 3.2 | 4.8 | 0.00 | 0.00 | 0.00 | 37 | 1009.3 |
| 20260508142014 | 12 | 161 | 3.2 | 4.8 | 0.00 | 0.00 | 0.00 | 38 | 1009.6 |
| 20260508141510 | 12 | 178 | 0.0 | 4.8 | 0.00 | 0.00 | 0.00 | 38 | 1009.7 |
| 20260508141008 | 12 | 73 | 1.6 | 4.8 | 0.00 | 0.00 | 0.00 | 38 | 1009.6 |
| 20260508140506 | 12 | 228 | 3.2 | 6.4 | 0.00 | 0.00 | 0.00 | 38 | 1009.8 |
| 20260508140001 | 12 | 134 | 1.6 | 9.7 | 0.00 | 0.00 | 0.00 | 37 | 1009.8 |
| 20260508135457 | 12 | 198 | 3.2 | 6.4 | 0.00 | 0.00 | 0.00 | 37 | 1009.7 |
| 20260508134954 | 12 | 168 | 3.2 | 11.3 | 0.00 | 0.00 | 0.00 | 38 | 1009.8 |
| 20260508134450 | 12 | 168 | 1.6 | 6.4 | 0.00 | 0.00 | 0.00 | 36 | 1009.8 |
| 20260508133947 | 12 | 77 | 3.2 | 4.8 | 0.00 | 0.00 | 0.00 | 38 | 1009.7 |
| 20260508133445 | 13 | 274 | 3.2 | 3.2 | 0.00 | 0.00 | 0.00 | 37 | 1009.7 |
| 20260508132941 | 13 | 204 | 3.2 | 9.7 | 0.00 | 0.00 | 0.00 | 38 | 1009.6 |
| 20260508132440 | 12 | 49 | 3.2 | 6.4 | 0.00 | 0.00 | 0.00 | 37 | 1009.5 |
| 20260508131936 | 12 | 56 | 4.8 | 9.7 | 0.00 | 0.00 | 0.00 | 38 | 1009.8 |
| 20260508131431 | 12 | 60 | 1.6 | 4.8 | 0.00 | 0.00 | 0.00 | 41 | 1009.9 |
| 20260508130928 | 12 | 38 | 4.8 | 11.3 | 0.00 | 0.00 | 0.00 | 39 | 1009.8 |
| 20260508130426 | 12 | 78 | 0.0 | 3.2 | 0.00 | 0.00 | 0.00 | 41 | 1009.8 |
| 20260508125921 | 12 | 97 | 1.6 | 6.4 | 0.00 | 0.00 | 0.00 | 40 | 1009.9 |
| 20260508125417 | 11 | 194 | 3.2 | 4.8 | 0.00 | 0.00 | 0.00 | 43 | 1009.8 |
| 20260508124915 | 11 | 104 | 3.2 | 9.7 | 0.00 | 0.00 | 0.00 | 41 | 1009.8 |
| 20260508124413 | 11 | 78 | 1.6 | 6.4 | 0.00 | 0.00 | 0.00 | 42 | 1009.8 |
| 20260508123911 | 11 | 205 | 1.6 | 3.2 | 0.00 | 0.00 | 0.00 | 46 | 1009.8 |
| 20260508123409 | 10 | 68 | 3.2 | 6.4 | 0.00 | 0.00 | 0.00 | 45 | 1010.0 |
| 20260508122905 | 11 | 33 | 3.2 | 3.2 | 0.00 | 0.00 | 0.00 | 46 | 1009.9 |
| 20260508122402 | 10 | 262 | 0.0 | 3.2 | 0.00 | 0.00 | 0.00 | 45 | 1010.0 |
| 20260508121859 | 10 | 18 | 1.6 | 4.8 | 0.00 | 0.00 | 0.00 | 46 | 1010.0 |
| 20260508121357 | 10 | 349 | 1.6 | 4.8 | 0.00 | 0.00 | 0.00 | 45 | 1009.8 |
| 20260508120855 | 10 | 213 | 1.6 | 3.2 | 0.00 | 0.00 | 0.00 | 51 | 1009.8 |
| 20260508120352 | 9 | 206 | 0.0 | 1.6 | 0.00 | 0.00 | 0.00 | 50 | 1009.8 |
| 20260508115849 | 9 | 90 | 0.0 | 1.6 | 0.00 | 0.00 | 0.00 | 51 | 1009.8 |
| 20260508115347 | 9 | 143 | 1.6 | 1.6 | 0.00 | 0.00 | 0.00 | 51 | 1010.0 |
| 20260508114843 | 8 | 150 | 1.6 | 3.2 | 0.00 | 0.00 | 0.00 | 51 | 1010.0 |
| 20260508114340 | 8 | 66 | 0.0 | 1.6 | 0.00 | 0.00 | 0.00 | 53 | 1010.0 |
| 20260508113837 | 7 | 136 | 0.0 | 1.6 | 0.00 | 0.00 | 0.00 | 58 | 1009.8 |
| 20260508113335 | 6 | 180 | 1.6 | 1.6 | 0.00 | 0.00 | 0.00 | 61 | 1009.7 |
| 20260508112831 | 6 | 83 | 0.0 | 0.0 | 0.00 | 0.00 | 0.00 | 65 | 1009.8 |
| 20260508112329 | 6 | 83 | 0.0 | 0.0 | 0.00 | 0.00 | 0.00 | 66 | 1009.9 |
| 20260508111825 | 5 | 83 | 0.0 | 0.0 | 0.00 | 0.00 | 0.00 | 66 | 1009.9 |
| 20260508111322 | 5 | 84 | 0.0 | 0.0 | 0.00 | 0.00 | 0.00 | 71 | 1009.9 |
| 20260508110820 | 5 | 79 | 0.0 | 0.0 | 0.00 | 0.00 | 0.00 | 74 | 1009.7 |
| 20260508110317 | 5 | 79 | 0.0 | 0.0 | 0.00 | 0.00 | 0.00 | 78 | 1009.8 |
| 20260508105817 | 4 | 79 | 0.0 | 0.0 | 0.00 | 0.00 | 0.00 | 81 | 1009.7 |
| 20260508105314 | 4 | 79 | 0.0 | 0.0 | 0.00 | 0.00 | 0.00 | 82 | 1009.7 |
| 20260508104811 | 4 | 79 | 0.0 | 0.0 | 0.00 | 0.00 | 0.00 | 83 | 1009.7 |
| 20260508104307 | 3 | 79 | 0.0 | 0.0 | 0.00 | 0.00 | 0.00 | 84 | 1009.7 |
| 20260508103805 | 3 | 79 | 0.0 | 0.0 | 0.00 | 0.00 | 0.00 | 85 | 1009.7 |
| 20260508103301 | 3 | 79 | 0.0 | 0.0 | 0.00 | 0.00 | 0.00 | 85 | 1009.6 |
| 20260508102759 | 3 | 68 | 0.0 | 0.0 | 0.00 | 0.00 | 0.00 | 86 | 1009.5 |
| 20260508102257 | 3 | 68 | 0.0 | 0.0 | 0.00 | 0.00 | 0.00 | 86 | 1009.4 |
| 20260508101754 | 3 | 68 | 0.0 | 0.0 | 0.00 | 0.00 | 0.00 | 86 | 1009.3 |
| 20260508101251 | 3 | 68 | 0.0 | 0.0 | 0.00 | 0.00 | 0.00 | 86 | 1009.3 |
| 20260508100749 | 3 | 68 | 0.0 | 0.0 | 0.00 | 0.00 | 0.00 | 86 | 1009.2 |
| 20260508100246 | 3 | 68 | 0.0 | 1.6 | 0.00 | 0.00 | 0.00 | 86 | 1009.1 |
| 20260508095742 | 3 | 69 | 0.0 | 0.0 | 0.00 | 0.00 | 0.00 | 86 | 1009.2 |
| 20260508095240 | 3 | 69 | 0.0 | 0.0 | 0.00 | 0.00 | 0.00 | 85 | 1009.1 |
| 20260508094737 | 3 | 70 | 0.0 | 0.0 | 0.00 | 0.00 | 0.00 | 85 | 1009.0 |
| 20260508094234 | 3 | 71 | 0.0 | 0.0 | 0.00 | 0.00 | 0.00 | 84 | 1009.2 |
| 20260508093731 | 3 | 71 | 0.0 | 0.0 | 0.00 | 0.00 | 0.00 | 84 | 1009.0 |
| 20260508093229 | 3 | 71 | 0.0 | 0.0 | 0.00 | 0.00 | 0.00 | 84 | 1008.8 |
| 20260508092725 | 3 | 71 | 0.0 | 0.0 | 0.00 | 0.00 | 0.00 | 84 | 1008.8 |
| 20260508092224 | 3 | 71 | 0.0 | 0.0 | 0.00 | 0.00 | 0.00 | 83 | 1008.7 |
| 20260508091721 | 3 | 71 | 0.0 | 0.0 | 0.00 | 0.00 | 0.00 | 82 | 1008.8 |
| 20260508091218 | 3 | 71 | 0.0 | 0.0 | 0.00 | 0.00 | 0.00 | 81 | 1008.8 |
| 20260508090716 | 3 | 70 | 0.0 | 0.0 | 0.00 | 0.00 | 0.00 | 80 | 1008.7 |
| 20260508090213 | 3 | 71 | 0.0 | 0.0 | 0.00 | 0.00 | 0.00 | 78 | 1008.7 |
| 20260508085709 | 3 | 71 | 0.0 | 0.0 | 0.00 | 0.00 | 0.00 | 77 | 1008.8 |
| 20260508085207 | 3 | 71 | 0.0 | 0.0 | 0.00 | 0.00 | 0.00 | 76 | 1008.7 |
| 20260508084702 | 3 | 71 | 0.0 | 0.0 | 0.00 | 0.00 | 0.00 | 76 | 1008.6 |
| 20260508084200 | 3 | 71 | 0.0 | 0.0 | 0.00 | 0.00 | 0.00 | 76 | 1008.8 |
| 20260508083657 | 4 | 70 | 0.0 | 0.0 | 0.00 | 0.00 | 0.00 | 75 | 1008.7 |
| 20260508083155 | 4 | 71 | 0.0 | 0.0 | 0.00 | 0.00 | 0.00 | 73 | 1008.5 |
| 20260508082649 | 4 | 71 | 0.0 | 0.0 | 0.00 | 0.00 | 0.00 | 69 | 1008.8 |
| 20260508082147 | 4 | 71 | 0.0 | 0.0 | 0.00 | 0.00 | 0.00 | 70 | 1008.6 |
| 20260508081645 | 4 | 71 | 0.0 | 0.0 | 0.00 | 0.00 | 0.00 | 69 | 1008.5 |
| 20260508081141 | 4 | 71 | 0.0 | 0.0 | 0.00 | 0.00 | 0.00 | 69 | 1008.4 |
| 20260508080638 | 4 | 67 | 0.0 | 0.0 | 0.00 | 0.00 | 0.00 | 73 | 1008.5 |
| 20260508080137 | 3 | 72 | 0.0 | 0.0 | 0.00 | 0.00 | 0.00 | 75 | 1008.4 |
| 20260508075633 | 3 | 71 | 0.0 | 0.0 | 0.00 | 0.00 | 0.00 | 77 | 1008.2 |
| 20260508075130 | 4 | 71 | 0.0 | 0.0 | 0.00 | 0.00 | 0.00 | 77 | 1007.9 |
| 20260508074627 | 4 | 72 | 0.0 | 0.0 | 0.00 | 0.00 | 0.00 | 77 | 1008.0 |
| 20260508074124 | 4 | 72 | 0.0 | 0.0 | 0.00 | 0.00 | 0.00 | 77 | 1008.0 |
| 20260508073621 | 4 | 75 | 0.0 | 0.0 | 0.00 | 0.00 | 0.00 | 77 | 1007.9 |
| 20260508073120 | 5 | 74 | 0.0 | 0.0 | 0.00 | 0.00 | 0.00 | 76 | 1007.6 |
| 20260508072614 | 5 | 75 | 0.0 | 0.0 | 0.00 | 0.00 | 0.00 | 73 | 1007.7 |
| 20260508072112 | 5 | 80 | 0.0 | 0.0 | 0.00 | 0.00 | 0.00 | 69 | 1007.7 |
| 20260508071610 | 5 | 93 | 0.0 | 0.0 | 0.00 | 0.00 | 0.00 | 71 | 1007.6 |
| 20260508071108 | 5 | 108 | 0.0 | 0.0 | 0.00 | 0.00 | 0.00 | 72 | 1007.5 |
| 20260508070605 | 5 | 76 | 0.0 | 0.0 | 0.00 | 0.00 | 0.00 | 73 | 1007.5 |
| 20260508065600 | 5 | 79 | 0.0 | 0.0 | 0.00 | 0.00 | 0.00 | 70 | 1007.6 |
| 20260508065058 | 6 | 79 | 0.0 | 0.0 | 0.00 | 0.00 | 0.00 | 67 | 1007.6 |
| 20260508064555 | 6 | 73 | 0.0 | 0.0 | 0.00 | 0.00 | 0.00 | 67 | 1007.6 |
| 20260508064053 | 6 | 88 | 0.0 | 1.6 | 0.00 | 0.00 | 0.00 | 58 | 1007.5 |
| 20260508063550 | 6 | 163 | 0.0 | 1.6 | 0.00 | 0.00 | 0.00 | 58 | 1007.6 |
| 20260508063048 | 6 | 148 | 0.0 | 0.0 | 0.00 | 0.00 | 0.00 | 58 | 1007.8 |
| 20260508062545 | 6 | 137 | 0.0 | 0.0 | 0.00 | 0.00 | 0.00 | 59 | 1007.5 |
| 20260508062042 | 6 | 116 | 0.0 | 0.0 | 0.00 | 0.00 | 0.00 | 58 | 1007.6 |
| 20260508061540 | 6 | 62 | 0.0 | 1.6 | 0.00 | 0.00 | 0.00 | 60 | 1007.7 |
| 20260508061036 | 6 | 68 | 0.0 | 0.0 | 0.00 | 0.00 | 0.00 | 63 | 1007.6 |
| 20260508060533 | 5 | 82 | 0.0 | 0.0 | 0.00 | 0.00 | 0.00 | 66 | 1007.8 |
| 20260508060031 | 6 | 65 | 0.0 | 0.0 | 0.00 | 0.00 | 0.00 | 72 | 1007.8 |
| 20260508055526 | 6 | 65 | 0.0 | 0.0 | 0.00 | 0.00 | 0.00 | 72 | 1007.7 |
| 20260508055023 | 6 | 73 | 0.0 | 1.6 | 0.00 | 0.00 | 0.00 | 71 | 1007.9 |
| 20260508054520 | 6 | 67 | 1.6 | 1.6 | 0.00 | 0.00 | 0.00 | 66 | 1008.0 |
| 20260508054017 | 7 | 65 | 0.0 | 1.6 | 0.00 | 0.00 | 0.00 | 60 | 1007.9 |
| 20260508053514 | 7 | 97 | 0.0 | 0.0 | 0.00 | 0.00 | 0.00 | 59 | 1008.1 |
| 20260508053013 | 7 | 134 | 0.0 | 0.0 | 0.00 | 0.00 | 0.00 | 57 | 1008.0 |
| 20260508052509 | 7 | 139 | 1.6 | 1.6 | 0.00 | 0.00 | 0.00 | 56 | 1007.9 |
| 20260508052006 | 7 | 84 | 0.0 | 0.0 | 0.00 | 0.00 | 0.00 | 59 | 1008.0 |
| 20260508051502 | 7 | 95 | 0.0 | 0.0 | 0.00 | 0.00 | 0.00 | 61 | 1008.1 |
| 20260508050957 | 7 | 84 | 0.0 | 0.0 | 0.00 | 0.00 | 0.00 | 59 | 1008.1 |
| 20260508050454 | 7 | 79 | 0.0 | 0.0 | 0.00 | 0.00 | 0.00 | 61 | 1008.3 |
| 20260508045950 | 7 | 78 | 0.0 | 0.0 | 0.00 | 0.00 | 0.00 | 62 | 1008.3 |
| 20260508045448 | 7 | 79 | 0.0 | 0.0 | 0.00 | 0.00 | 0.00 | 61 | 1008.3 |
| 20260508044945 | 7 | 79 | 0.0 | 0.0 | 0.00 | 0.00 | 0.00 | 61 | 1008.3 |
| 20260508044442 | 7 | 79 | 0.0 | 0.0 | 0.00 | 0.00 | 0.00 | 60 | 1008.2 |
| 20260508043937 | 7 | 79 | 0.0 | 0.0 | 0.00 | 0.00 | 0.00 | 59 | 1008.3 |
| 20260508043435 | 8 | 79 | 0.0 | 0.0 | 0.00 | 0.00 | 0.00 | 57 | 1008.6 |
| 20260508042931 | 8 | 79 | 0.0 | 0.0 | 0.00 | 0.00 | 0.00 | 57 | 1008.5 |
| 20260508042429 | 8 | 80 | 0.0 | 0.0 | 0.00 | 0.00 | 0.00 | 55 | 1008.4 |
| 20260508041926 | 8 | 106 | 0.0 | 0.0 | 0.00 | 0.00 | 0.00 | 53 | 1008.5 |
| 20260508041422 | 8 | 144 | 0.0 | 0.0 | 0.00 | 0.00 | 0.00 | 52 | 1008.4 |
| 20260508040919 | 8 | 105 | 0.0 | 0.0 | 0.00 | 0.00 | 0.00 | 53 | 1008.5 |
| 20260508040416 | 8 | 73 | 0.0 | 0.0 | 0.00 | 0.00 | 0.00 | 52 | 1008.4 |
| 20260508035914 | 9 | 73 | 0.0 | 0.0 | 0.00 | 0.03 | 0.03 | 51 | 1008.4 |
| 20260508035411 | 9 | 78 | 0.0 | 0.0 | 0.00 | 0.03 | 0.03 | 51 | 1008.5 |
| 20260508034908 | 9 | 121 | 0.0 | 1.6 | 0.00 | 0.03 | 0.03 | 50 | 1008.4 |
| 20260508034405 | 9 | 167 | 0.0 | 0.0 | 0.00 | 0.03 | 0.03 | 50 | 1008.4 |
| 20260508033901 | 9 | 262 | 0.0 | 0.0 | 0.00 | 0.03 | 0.03 | 50 | 1008.4 |
| 20260508033400 | 9 | 96 | 0.0 | 0.0 | 0.00 | 0.03 | 0.03 | 50 | 1008.3 |
| 20260508032857 | 10 | 131 | 0.0 | 0.0 | 0.00 | 0.03 | 0.03 | 49 | 1008.5 |
| 20260508032354 | 10 | 63 | 0.0 | 1.6 | 0.00 | 0.03 | 0.03 | 49 | 1008.4 |
| 20260508031851 | 10 | 131 | 0.0 | 0.0 | 0.00 | 0.03 | 0.03 | 49 | 1008.3 |
| 20260508031348 | 10 | 164 | 0.0 | 4.8 | 0.00 | 0.03 | 0.03 | 47 | 1008.2 |
| 20260508030844 | 10 | 140 | 0.0 | 1.6 | 0.00 | 0.03 | 0.03 | 47 | 1008.0 |
| 20260508030341 | 10 | 157 | 1.6 | 3.2 | 0.00 | 0.03 | 0.03 | 47 | 1008.1 |
| 20260508025838 | 10 | 144 | 1.6 | 1.6 | 0.00 | 0.03 | 0.03 | 47 | 1008.2 |
| 20260508025335 | 10 | 151 | 0.0 | 1.6 | 0.00 | 0.03 | 0.03 | 48 | 1008.1 |
| 20260508024832 | 10 | 156 | 0.0 | 1.6 | 0.00 | 0.03 | 0.03 | 47 | 1008.1 |
| 20260508024328 | 10 | 168 | 0.0 | 1.6 | 0.00 | 0.03 | 0.03 | 48 | 1008.3 |
| 20260508023825 | 10 | 158 | 0.0 | 1.6 | 0.00 | 0.03 | 0.03 | 47 | 1008.3 |
| 20260508023322 | 10 | 173 | 1.6 | 1.6 | 0.00 | 0.03 | 0.03 | 47 | 1008.0 |
| 20260508022819 | 10 | 151 | 0.0 | 1.6 | 0.00 | 0.03 | 0.03 | 46 | 1007.9 |
| 20260508022314 | 10 | 161 | 0.0 | 1.6 | 0.00 | 0.03 | 0.03 | 47 | 1008.1 |
| 20260508021812 | 10 | 157 | 0.0 | 1.6 | 0.00 | 0.03 | 0.03 | 46 | 1008.1 |
| 20260508021307 | 11 | 133 | 0.0 | 1.6 | 0.00 | 0.03 | 0.03 | 46 | 1008.1 |
| 20260508020804 | 11 | 163 | 3.2 | 3.2 | 0.00 | 0.03 | 0.03 | 46 | 1008.0 |
| 20260508020302 | 11 | 135 | 0.0 | 0.0 | 0.00 | 0.03 | 0.03 | 47 | 1007.9 |
| 20260508015758 | 11 | 176 | 1.6 | 3.2 | 0.00 | 0.03 | 0.03 | 47 | 1008.0 |
| 20260508015256 | 11 | 162 | 1.6 | 1.6 | 0.00 | 0.03 | 0.03 | 45 | 1008.2 |
| 20260508014752 | 11 | 150 | 0.0 | 1.6 | 0.00 | 0.03 | 0.03 | 46 | 1008.0 |
| 20260508014249 | 11 | 148 | 0.0 | 0.0 | 0.00 | 0.03 | 0.03 | 47 | 1007.8 |
| 20260508013745 | 11 | 146 | 0.0 | 1.6 | 0.00 | 0.03 | 0.03 | 45 | 1007.8 |
| 20260508013242 | 11 | 155 | 0.0 | 0.0 | 0.00 | 0.03 | 0.03 | 45 | 1007.7 |
| 20260508012739 | 11 | 154 | 0.0 | 1.6 | 0.00 | 0.03 | 0.03 | 44 | 1007.4 |
| 20260508012236 | 11 | 145 | 0.0 | 1.6 | 0.00 | 0.03 | 0.03 | 46 | 1007.4 |
| 20260508011734 | 11 | 140 | 0.0 | 0.0 | 0.00 | 0.03 | 0.03 | 46 | 1007.4 |
| 20260508011231 | 11 | 134 | 0.0 | 1.6 | 0.00 | 0.03 | 0.03 | 44 | 1007.3 |
| 20260508010728 | 11 | 135 | 0.0 | 0.0 | 0.00 | 0.03 | 0.03 | 45 | 1007.3 |
| 20260508010226 | 11 | 135 | 0.0 | 0.0 | 0.00 | 0.03 | 0.03 | 43 | 1007.4 |
| 20260508005723 | 11 | 135 | 0.0 | 0.0 | 0.00 | 0.03 | 0.03 | 43 | 1007.4 |
| 20260508005220 | 11 | 137 | 0.0 | 0.0 | 0.00 | 0.03 | 0.03 | 42 | 1007.1 |
| 20260508004715 | 11 | 100 | 0.0 | 0.0 | 0.00 | 0.03 | 0.03 | 42 | 1007.1 |
| 20260508004212 | 12 | 304 | 0.0 | 1.6 | 0.00 | 0.03 | 0.03 | 41 | 1006.9 |
| 20260508003708 | 12 | 113 | 0.0 | 0.0 | 0.00 | 0.03 | 0.03 | 40 | 1007.1 |
| 20260508003206 | 12 | 117 | 0.0 | 3.2 | 0.00 | 0.03 | 0.03 | 40 | 1006.6 |
| 20260508002702 | 12 | 60 | 0.0 | 0.0 | 0.00 | 0.03 | 0.03 | 40 | 1006.7 |
| 20260508002200 | 12 | 140 | 0.0 | 0.0 | 0.00 | 0.03 | 0.03 | 39 | 1006.7 |
| 20260508001655 | 12 | 76 | 0.0 | 0.0 | 0.00 | 0.03 | 0.03 | 39 | 1006.7 |
| 20260508001151 | 12 | 152 | 0.0 | 0.0 | 0.00 | 0.03 | 0.03 | 38 | 1006.6 |
| 20260508000647 | 12 | 130 | 0.0 | 1.6 | 0.00 | 0.03 | 0.03 | 38 | 1006.9 |
| 20260508000145 | 12 | 97 | 0.0 | 0.0 | 0.00 | 0.03 | 0.03 | 39 | 1006.7 |
| 20260507235641 | 13 | 79 | 0.0 | 0.0 | 0.00 | 0.03 | 0.03 | 38 | 1006.5 |
| 20260507235139 | 13 | 49 | 0.0 | 1.6 | 0.00 | 0.03 | 0.03 | 36 | 1006.5 |
| 20260507234636 | 13 | 161 | 0.0 | 1.6 | 0.00 | 0.03 | 0.03 | 37 | 1006.4 |
| 20260507234132 | 13 | 56 | 0.0 | 1.6 | 0.00 | 0.03 | 0.03 | 37 | 1006.3 |
| 20260507233629 | 13 | 339 | 1.6 | 3.2 | 0.00 | 0.03 | 0.03 | 37 | 1006.3 |
| 20260507233127 | 13 | 186 | 1.6 | 1.6 | 0.00 | 0.03 | 0.03 | 36 | 1006.3 |
| 20260507232625 | 13 | 136 | 0.0 | 1.6 | 0.00 | 0.03 | 0.03 | 35 | 1006.3 |
| 20260507232121 | 13 | 74 | 3.2 | 4.8 | 0.00 | 0.03 | 0.03 | 34 | 1006.3 |
| 20260507231617 | 14 | 147 | 0.0 | 6.4 | 0.00 | 0.03 | 0.03 | 34 | 1006.0 |
| 20260507231114 | 14 | 175 | 0.0 | 4.8 | 0.00 | 0.03 | 0.03 | 34 | 1006.0 |
| 20260507230611 | 14 | 59 | 0.0 | 3.2 | 0.00 | 0.03 | 0.03 | 35 | 1006.2 |
| 20260507230108 | 14 | 162 | 0.0 | 3.2 | 0.00 | 0.03 | 0.03 | 35 | 1006.2 |
| 20260507225602 | 14 | 309 | 1.6 | 4.8 | 0.00 | 0.03 | 0.03 | 33 | 1006.1 |
| 20260507225059 | 15 | 51 | 0.0 | 1.6 | 0.00 | 0.03 | 0.03 | 33 | 1006.0 |
| 20260507224555 | 15 | 163 | 1.6 | 3.2 | 0.00 | 0.03 | 0.03 | 33 | 1006.2 |
| 20260507224052 | 15 | 148 | 3.2 | 6.4 | 0.00 | 0.03 | 0.03 | 31 | 1005.9 |
| 20260507223548 | 15 | 177 | 3.2 | 6.4 | 0.00 | 0.03 | 0.03 | 32 | 1005.8 |
| 20260507223045 | 15 | 98 | 1.6 | 4.8 | 0.00 | 0.03 | 0.03 | 32 | 1005.6 |
| 20260507222542 | 15 | 126 | 0.0 | 1.6 | 0.00 | 0.03 | 0.03 | 31 | 1005.7 |
| 20260507222038 | 15 | 161 | 1.6 | 3.2 | 0.00 | 0.03 | 0.03 | 31 | 1005.7 |
| 20260507221535 | 15 | 319 | 0.0 | 3.2 | 0.00 | 0.03 | 0.03 | 32 | 1005.8 |
| 20260507221032 | 15 | 165 | 0.0 | 3.2 | 0.00 | 0.03 | 0.03 | 31 | 1005.7 |
| 20260507220529 | 16 | 142 | 1.6 | 6.4 | 0.00 | 0.03 | 0.03 | 30 | 1005.7 |
| 20260507220026 | 16 | 212 | 3.2 | 11.3 | 0.00 | 0.03 | 0.03 | 31 | 1005.6 |
| 20260507215522 | 16 | 218 | 3.2 | 14.5 | 0.00 | 0.03 | 0.03 | 30 | 1005.5 |
| 20260507215020 | 16 | 152 | 3.2 | 4.8 | 0.00 | 0.03 | 0.03 | 32 | 1005.5 |
| 20260507214517 | 16 | 41 | 0.0 | 11.3 | 0.00 | 0.03 | 0.03 | 31 | 1005.5 |
| 20260507214013 | 16 | 210 | 6.4 | 9.7 | 0.00 | 0.03 | 0.03 | 31 | 1005.4 |
| 20260507213510 | 16 | 87 | 3.2 | 4.8 | 0.00 | 0.03 | 0.03 | 31 | 1005.4 |
| 20260507213007 | 16 | 57 | 1.6 | 1.6 | 0.00 | 0.03 | 0.03 | 32 | 1005.4 |
| 20260507212502 | 16 | 148 | 1.6 | 11.3 | 0.00 | 0.03 | 0.03 | 31 | 1005.5 |
| 20260507211959 | 16 | 48 | 3.2 | 4.8 | 0.00 | 0.03 | 0.03 | 29 | 1005.3 |
| 20260507211456 | 17 | 105 | 3.2 | 4.8 | 0.00 | 0.03 | 0.03 | 31 | 1005.6 |
| 20260507210952 | 17 | 249 | 1.6 | 4.8 | 0.00 | 0.03 | 0.03 | 29 | 1005.4 |
| 20260507210449 | 16 | 121 | 1.6 | 3.2 | 0.00 | 0.03 | 0.03 | 30 | 1005.3 |
| 20260507205946 | 17 | 98 | 3.2 | 4.8 | 0.00 | 0.03 | 0.03 | 29 | 1005.4 |
| 20260507205443 | 17 | 168 | 3.2 | 4.8 | 0.00 | 0.03 | 0.03 | 29 | 1005.3 |
| 20260507204939 | 17 | 202 | 1.6 | 6.4 | 0.00 | 0.03 | 0.03 | 29 | 1005.3 |
| 20260507204436 | 17 | 243 | 1.6 | 11.3 | 0.00 | 0.03 | 0.03 | 30 | 1005.3 |
| 20260507203934 | 17 | 219 | 1.6 | 3.2 | 0.00 | 0.03 | 0.03 | 30 | 1005.4 |
| 20260507203431 | 17 | 74 | 3.2 | 4.8 | 0.00 | 0.03 | 0.03 | 28 | 1005.3 |
| 20260507202928 | 17 | 73 | 3.2 | 14.5 | 0.00 | 0.03 | 0.03 | 31 | 1005.4 |
| 20260507202424 | 17 | 164 | 3.2 | 11.3 | 0.00 | 0.03 | 0.03 | 30 | 1005.5 |
| 20260507201920 | 17 | 190 | 4.8 | 9.7 | 0.00 | 0.03 | 0.03 | 29 | 1005.2 |
| 20260507201415 | 16 | 144 | 6.4 | 9.7 | 0.00 | 0.03 | 0.03 | 32 | 1005.3 |
| 20260507200912 | 16 | 111 | 4.8 | 6.4 | 0.00 | 0.03 | 0.03 | 32 | 1005.2 |
| 20260507200408 | 17 | 228 | 0.0 | 9.7 | 0.00 | 0.03 | 0.03 | 30 | 1005.3 |
| 20260507195904 | 17 | 226 | 3.2 | 4.8 | 0.00 | 0.03 | 0.03 | 31 | 1005.3 |
| 20260507195402 | 17 | 141 | 4.8 | 12.9 | 0.00 | 0.03 | 0.03 | 31 | 1005.2 |
| 20260507194859 | 16 | 204 | 0.0 | 3.2 | 0.00 | 0.03 | 0.03 | 34 | 1005.3 |
| 20260507194355 | 17 | 42 | 3.2 | 4.8 | 0.00 | 0.03 | 0.03 | 31 | 1005.5 |
| 20260507193851 | 18 | 109 | 6.4 | 9.7 | 0.00 | 0.03 | 0.03 | 29 | 1005.4 |
| 20260507193349 | 17 | 181 | 3.2 | 4.8 | 0.00 | 0.03 | 0.03 | 32 | 1005.6 |
| 20260507192845 | 17 | 77 | 4.8 | 9.7 | 0.00 | 0.03 | 0.03 | 29 | 1005.7 |
| 20260507192341 | 17 | 185 | 4.8 | 12.9 | 0.00 | 0.03 | 0.03 | 30 | 1005.7 |
| 20260507191838 | 18 | 125 | 3.2 | 9.7 | 0.00 | 0.03 | 0.03 | 30 | 1005.9 |
| 20260507191334 | 17 | 11 | 1.6 | 4.8 | 0.00 | 0.03 | 0.03 | 32 | 1005.5 |
| 20260507190831 | 17 | 144 | 8.0 | 11.3 | 0.00 | 0.03 | 0.03 | 33 | 1005.7 |
| 20260507190329 | 18 | 160 | 4.8 | 9.7 | 0.00 | 0.03 | 0.03 | 31 | 1005.7 |
| 20260507185828 | 17 | 35 | 3.2 | 9.7 | 0.00 | 0.03 | 0.03 | 29 | 1005.7 |
| 20260507185325 | 17 | 171 | 4.8 | 9.7 | 0.00 | 0.03 | 0.03 | 31 | 1005.9 |
| 20260507184822 | 17 | 88 | 1.6 | 6.4 | 0.00 | 0.03 | 0.03 | 33 | 1005.8 |
| 20260507184320 | 17 | 16 | 3.2 | 6.4 | 0.00 | 0.03 | 0.03 | 28 | 1005.8 |
| 20260507183816 | 16 | 216 | 3.2 | 4.8 | 0.00 | 0.03 | 0.03 | 34 | 1006.1 |
| 20260507183313 | 16 | 125 | 4.8 | 9.7 | 0.00 | 0.03 | 0.03 | 31 | 1006.3 |
| 20260507182811 | 16 | 141 | 1.6 | 6.4 | 0.00 | 0.03 | 0.03 | 33 | 1006.3 |
| 20260507182307 | 16 | 88 | 3.2 | 12.9 | 0.00 | 0.03 | 0.03 | 32 | 1006.1 |
| 20260507181803 | 16 | 129 | 1.6 | 6.4 | 0.00 | 0.03 | 0.03 | 30 | 1006.3 |
| 20260507181259 | 16 | 309 | 0.0 | 4.8 | 0.00 | 0.03 | 0.03 | 33 | 1006.6 |
| 20260507180755 | 17 | 107 | 3.2 | 6.4 | 0.00 | 0.03 | 0.03 | 30 | 1006.5 |
| 20260507180253 | 16 | 29 | 6.4 | 11.3 | 0.00 | 0.03 | 0.03 | 31 | 1006.5 |
| 20260507175748 | 16 | 93 | 1.6 | 9.7 | 0.00 | 0.03 | 0.03 | 30 | 1006.4 |
| 20260507175245 | 16 | 338 | 3.2 | 6.4 | 0.00 | 0.03 | 0.03 | 30 | 1006.3 |
| 20260507174742 | 16 | 81 | 3.2 | 6.4 | 0.00 | 0.03 | 0.03 | 31 | 1006.3 |
| 20260507174240 | 16 | 64 | 1.6 | 11.3 | 0.00 | 0.03 | 0.03 | 30 | 1006.3 |
| 20260507173738 | 16 | 152 | 3.2 | 4.8 | 0.00 | 0.03 | 0.03 | 31 | 1006.1 |
| 20260507173234 | 16 | 68 | 4.8 | 12.9 | 0.00 | 0.03 | 0.03 | 30 | 1006.2 |